Regional Weather Roundup
Issued by NWS

Home | Current Version | Previous Version | Graphics & Text | Print | Product List | Glossary On
Versions: 1 2 3 4 5 6 7 8 9 10 11 12 13 14 15 16 17 18 19 20 21 22 23 24 25 26 27 28 29 30 31 32 33 34 35 36 37 38 39 40 41 42 43 44 45 46 47 48 49 50
000
ASUS43 KFSD 250502
RWRSD

WEATHER ROUNDUP FOR SOUTH DAKOTA
NATIONAL WEATHER SERVICE SIOUX FALLS SD
1200 AM CDT WED APR 25 2018

NOTE: "FAIR" INDICATES FEW OR NO CLOUDS BELOW 12,000 FEET WITH NO
SIGNIFICANT WEATHER AND/OR OBSTRUCTIONS TO VISIBILITY.


SDZ001>005-009-010-012>017-250600-
NORTHWEST AND NORTH CENTRAL SOUTH DAKOTA

CITY           SKY/WX    TMP DP  RH WIND       PRES   REMARKS
BUFFALO          N/A     39  29  67 W6        30.31F
FAITH            N/A     38  30  73 W7        30.37F
MOBRIDGE       CLEAR     34  28  79 CALM      30.34F
$$

SDZ012>016-024>037-041>051-057-063-072>074-250600-
SOUTHWEST AND SOUTH CENTRAL SOUTH DAKOTA

CITY           SKY/WX    TMP DP  RH WIND       PRES   REMARKS
RAPID CTY ARPT CLEAR     34  23  64 NW8       30.40F WCI  27
PIERRE         CLEAR     37  29  72 N5        30.36S
CUSTER         CLEAR     29  18  63 NW5       30.38F WCI  24
PHILIP         CLEAR     31  29  92 W7        30.39S WCI  24
PINE RIDGE     PTCLDY    34  29  82 SW5       30.41S WCI  30
SPEARFISH      FAIR      34  27  75 CALM      30.40F
WINNER         MOCLDY    40  34  79 W7        30.37S
$$

SDZ004>011-016>023-039-040-250600-
NORTHEAST SOUTH DAKOTA

CITY           SKY/WX    TMP DP  RH WIND       PRES   REMARKS
ABERDEEN       CLEAR     35  29  78 NW5       30.36S
WATERTOWN      CLEAR     34  31  88 NW6       30.32S WCI  29
BROOKINGS      CLEAR     36  30  79 N6        30.31F
SISSETON         N/A     35  31  85 NW9       30.32F WCI  28
$$

SDZ017-020-022-023-036>040-048>070-250600-
SOUTHEAST SOUTH DAKOTA

CITY           SKY/WX    TMP DP  RH WIND       PRES   REMARKS
SIOUX FALLS    CLEAR     41  32  70 N13       30.29S
HURON          CLEAR     34  31  88 NW6       30.35R WCI  29
CHAMBERLAIN    CLEAR     39  39 100 NW7       30.36S
MITCHELL       CLEAR     40  35  83 N7        30.34S
YANKTON        CLOUDY    44  41  89 NW10      30.32S
$$

ABBREVIATIONS USED IN REMARKS
   TC - TEMPERATURE IN CELSIUS
  WCI - WIND CHILL INDEX
   HX - HEAT INDEX
  VSB - VISIBILITY




USA.gov is the U.S. government's official web portal to all federal, state and local government web resources and services.